SCP
0 0 0 0 0 0 -0 -0 -0 0 0 0 0 -0 -0 -0 -0 0 0 0 0 0 0 0 0 0 0 0 0 0 0 0 0 0 0 0 0 0 0 0 0 0 0 0 0 0 0 0 0
0 0 0 0 0 0 -0 -0 0 0 0 0 0 0 -0 -0 -0 0 0 0 0 0 0 0 0 0 0 0 0 0 0 0 0 0 0 0 0 0 0 0 0 0 0 0 0 0 0 0 0
0 0 0 0 0 -0 -0 0 0 0 0 0 0 0 0 -0 0 0 0 0 0 0 0 0 0 0 0 0 0 0 0 0 0 0 0 0 0 0 0 0 0 0 0 0 0 0 0 0 0
0 0 0 0 0 -0 0 0 0 0 0 0 0 0 0 0 0 0 0 0 0 0 0 0 0 0 0 0 0 0 0 0 0 0 0 0 0 0 0 0 0 0 0 0 0 0 0 0 0
0 0 0 0 0 0 0 0 0 0 0 0 0 0 0 0 0 0 0 0 0 0 0 0 0 0 0 0 0 0 0 0 0 0 0 0 0 0 0 0 0 0 0 0 0 0 0 0 0
0 0 0 0 0 0 0 0 0 0 0 0 0 0 0 0 0 0 0 0 0 0 0 0 0 0 0 0 0 0 0 0 0 0 0 0 0 0 0 0 0 0 0 0 0 0 0 0 0
0 0 0 0 0 0 0 0 0 0 0 0 0 0 0 0 0 0 0 0 0 0 0 0 0 0 0 0 0 0 0 0 0 0 0 0 0 0 0 0 0 0 0 0 0 0 0 0 0
0 0 0 0 0 0 0 0 0 0 0 0 0 0 0 0 0 0 0 0 0 0 0 0 0 0 0 0 0 0 0 0 0 0 0 0 0 0 0 0 0 0 0 0 0 0 0 0 0
0 0 0 0 0 0 0 0 0 0 0 0 0 0 0 0 0 0 0 0 0 0 0 0 0 0 0 0 0 0 0 0 0 0 0 0 0 0 0 0 0 0 0 0 0 0 0 0 0
0 0 0 0 0 0 0 0 0 0 0 0 0 0 1 1 0 0 0 0 0 0 0 0 0 0 0 0 0 0 0 0 0 0 0 0 0 0 0 0 0 0 0 0 0 0 0 0 0
0 0 0 0 0 0 0 0 0 0 0 0 0 1 1 1 1 0 0 0 0 0 0 0 0 0 0 0 0 0 0 0 0 0 0 0 0 0 0 0 0 0 0 0 0 0 0 0 0
0 0 0 0 0 0 0 0 0 0 0 0 0 1 1 1 0 0 0 0 0 0 0 0 0 0 0 0 0 0 0 0 0 0 0 0 0 0 0 0 0 0 0 0 0 0 0 0 0
0 0 0 0 0 0 0 0 0 0 0 0 0 1 1 1 0 0 0 0 0 0 0 0 0 0 0 0 0 0 0 0 0 0 0 0 0 0 0 0 0 0 0 0 0 0 0 0 0
0 0 0 0 0 0 0 0 0 0 0 0 0 0 0 0 0 0 1 0 0 0 0 0 0 0 0 0 0 0 0 0 0 0 0 0 0 0 0 0 0 0 0 0 0 0 0 0 0
0 0 0 0 0 0 0 0 0 0 0 0 0 0 0 0 0 1 1 1 0 0 0 0 0 0 0 0 0 0 0 0 0 0 0 0 0 0 0 0 0 0 0 0 0 0 0 0 0
0 0 0 0 0 0 0 0 0 0 0 0 0 0 1 1 1 1 1 0 0 0 0 0 0 0 0 0 0 0 0 0 0 0 0 0 0 0 0 0 0 0 0 0 0 0 0 0 0
0 0 0 0 0 0 0 0 0 0 0 0 0 0 1 1 1 1 0 0 0 0 0 0 0 0 0 0 0 0 0 0 0 0 0 0 0 0 0 0 0 0 0 0 0 0 0 0 0
0 0 0 0 0 0 0 0 0 0 0 0 0 0 1 1 1 1 1 1 1 1 1 1 1 0 0 0 0 0 0 0 0 0 0 0 0 0 0 0 0 0 0 0 0 0 0 0 0
0 0 0 0 0 0 0 0 0 0 0 0 0 0 0 1 1 1 1 1 1 1 1 1 1 1 0 0 0 0 0 0 0 0 0 0 0 0 0 0 0 0 0 0 0 0 0 0 0
0 -0 0 0 0 0 0 0 0 0 0 0 0 0 0 1 1 1 1 1 1 1 1 1 1 1 1 0 0 0 0 0 0 0 0 0 0 0 0 0 0 0 0 0 0 0 0 0 0
0 -0 0 0 0 0 0 0 0 0 0 0 0 0 0 1 1 1 1 1 1 1 1 1 1 1 1 0 0 0 0 0 0 0 0 0 0 0 0 0 0 0 0 0 0 0 0 0 0
0 0 0 0 0 0 0 0 0 0 0 0 0 0 0 0 1 1 1 1 1 1 1 1 1 1 1 0 0 0 0 0 0 0 0 0 0 0 0 0 0 0 0 0 0 0 0 0 0
0 0 0 0 0 0 0 0 0 0 0 0 0 0 0 0 1 1 1 1 1 1 1 1 1 1 1 1 0 0 0 0 0 0 0 0 0 0 0 0 0 0 0 0 0 0 0 0 0
0 0 0 0 0 0 0 0 0 0 0 0 0 0 0 0 1 1 1 1 1 1 1 1 1 1 1 0 0 0 0 0 0 0 0 0 0 0 0 0 0 0 0 0 0 0 0 0 0
0 0 0 0 0 0 0 0 0 0 0 0 0 0 0 0 1 1 1 1 1 1 1 1 1 1 1 0 0 0 0 0 0 0 0 0 0 0 0 0 0 0 0 0 0 0 0 0 0
0 0 0 0 0 0 0 0 0 0 0 0 0 0 0 0 1 1 1 1 1 1 1 1 1 1 1 0 0 0 0 0 0 0 0 0 0 0 0 0 0 0 0 0 0 0 0 0 0
0 0 0 0 0 0 0 0 0 0 0 0 0 0 0 1 1 1 1 1 1 1 1 1 1 1 1 1 0 0 0 0 0 0 0 0 0 0 0 0 0 0 0 0 0 0 0 0 0
0 0 0 0 0 0 0 0 0 0 0 0 0 0 0 1 1 1 1 1 1 1 1 1 1 1 1 1 1 0 0 0 0 0 0 0 0 0 0 0 0 0 0 0 0 0 0 0 0
0 0 0 0 0 0 0 0 0 0 0 0 0 0 0 1 1 1 1 1 1 1 1 1 1 1 1 1 1 1 1 0 0 0 0 0 0 0 0 0 0 0 0 0 0 0 0 0 0
0 0 0 0 0 0 0 0 0 0 0 0 0 0 0 1 1 1 1 1 1 1 1 1 1 1 1 1 1 1 1 1 1 0 0 0 0 0 0 0 0 0 0 0 0 0 0 0 0
Wind_Speed
9 8 6 6 2 10 15 13 11 10 9 8 8 6 9 10 9 12 10 11 11 12 12 12 10 10 11 11 11 11 11 11 11 11 11 11 11 11 11 11 11 11 11 11 11 11 10 10 10
5 5 6 3 6 12 14 12 13 12 10 8 8 8 10 11 10 11 11 11 12 11 11 11 12 10 10 10 11 11 11 11 11 11 11 10 10 10 10 10 11 11 10 10 10 10 10 10 10
6 7 4 4 13 13 14 11 11 10 8 6 7 8 8 9 9 9 12 13 12 11 11 13 11 10 10 10 10 10 10 10 10 10 10 10 10 10 10 9 10 10 10 10 10 10 10 10 10
6 6 1 8 16 14 11 10 8 9 9 7 8 10 9 8 6 11 14 12 12 11 11 14 10 10 10 10 10 10 9 9 9 9 9 9 9 9 9 9 10 10 9 10 10 10 10 10 10
6 1 7 13 15 12 10 8 6 7 7 8 8 12 11 7 10 14 13 11 11 11 11 14 10 10 10 9 9 9 9 9 8 8 8 8 9 9 9 9 10 9 9 9 9 9 9 9 9
3 1 8 13 14 10 9 6 7 9 10 9 10 12 10 8 11 13 12 10 10 10 11 13 11 9 9 9 8 8 8 8 7 8 8 8 8 8 8 9 9 9 9 9 9 8 9 9 8
3 6 10 12 11 10 8 6 7 8 9 8 7 10 10 11 11 11 11 9 9 9 10 10 11 11 10 8 8 8 8 7 7 8 8 8 8 8 8 8 9 9 9 9 9 9 9 8 8
3 2 9 10 10 11 8 6 6 6 9 8 5 7 11 13 12 11 11 10 8 7 9 8 7 8 9 10 9 8 7 7 7 8 8 8 9 8 8 8 8 8 9 9 9 9 8 7 8
6 2 9 9 8 8 7 7 6 5 8 6 4 7 13 17 14 12 11 10 9 7 7 7 8 7 6 7 10 8 8 7 7 8 8 7 6 7 7 9 8 8 8 9 8 8 7 7 9
3 5 10 7 6 6 6 5 6 6 8 8 9 11 16 16 14 13 12 11 11 10 8 6 6 6 6 5 6 4 5 6 4 5 6 4 4 4 6 9 7 7 8 8 8 7 7 6 7
3 6 6 4 4 4 6 5 5 4 5 7 11 15 17 16 14 12 11 10 10 10 8 8 7 5 5 4 3 2 2 3 4 5 4 3 4 4 5 4 6 6 7 6 7 7 4 3 3
2 4 3 3 4 3 4 5 4 3 6 6 11 16 17 15 13 11 10 9 9 9 8 8 7 6 4 3 3 3 2 3 3 5 4 4 2 2 3 2 3 3 3 3 3 2 3 3 3
2 3 3 3 3 4 4 4 4 4 6 9 13 15 15 14 12 11 9 9 8 8 8 8 7 6 4 3 2 3 2 2 4 3 3 3 3 3 3 2 2 2 3 4 3 3 3 3 3
2 2 3 3 4 4 5 5 4 5 7 10 13 14 14 13 12 11 10 10 9 9 8 8 8 7 6 4 3 2 2 2 2 3 4 3 3 3 3 4 3 2 2 2 2 3 3 3 2
2 3 5 4 4 3 5 5 5 7 8 11 12 12 12 12 11 11 11 10 10 9 8 8 8 8 7 6 5 3 3 3 2 3 4 4 4 4 3 3 3 2 2 3 3 3 3 3 3
6 6 5 5 3 3 7 2 7 8 9 10 11 11 11 11 11 10 10 10 9 9 9 8 7 8 7 6 5 3 3 2 2 2 3 4 3 4 3 3 3 2 3 3 3 3 3 2 3
7 5 2 5 3 4 7 1 5 7 9 9 10 11 11 11 11 10 10 10 9 9 9 8 8 8 7 6 4 4 3 3 3 3 3 4 5 4 4 3 2 3 3 3 3 3 3 2 2
4 4 3 2 2 5 7 4 4 6 8 9 10 10 10 11 11 11 10 10 9 9 9 9 9 8 7 6 4 4 4 3 3 3 3 4 4 5 4 4 3 4 3 3 2 2 3 2 3
3 4 3 1 0 5 6 5 4 6 8 9 9 10 10 10 9 9 10 10 10 10 10 10 10 9 7 5 5 4 4 4 4 4 5 5 5 5 4 4 3 4 3 3 4 3 4 4 3
5 6 4 3 1 4 5 5 3 6 8 8 9 10 10 10 10 10 10 10 11 11 11 11 11 10 9 6 4 3 3 3 3 3 3 5 5 5 5 4 4 4 3 4 4 4 4 3 3
7 6 3 1 3 5 7 7 5 6 7 7 9 9 10 10 11 11 11 11 11 11 11 10 10 10 9 8 5 4 3 3 4 5 4 5 5 5 5 4 5 4 5 4 4 5 6 4 4
6 2 2 4 7 3 4 4 4 4 6 8 9 9 10 10 10 11 11 11 11 11 10 10 10 10 9 9 7 7 5 5 4 4 3 4 5 5 5 5 5 5 5 4 6 5 4 5 5
1 1 3 5 6 6 4 7 1 4 4 6 7 8 9 9 10 11 11 10 10 10 9 9 10 10 10 9 8 8 7 5 4 4 4 4 4 5 5 5 5 5 5 4 5 3 5 5 5
5 5 4 7 8 8 3 6 3 1 0 2 5 7 7 8 9 9 10 10 9 9 9 9 10 9 9 10 9 9 7 6 5 5 4 4 3 3 4 4 4 4 4 4 4 5 6 5 5
9 9 7 8 8 5 2 6 2 2 1 1 2 5 7 8 9 10 10 11 10 10 10 10 10 10 10 10 9 8 7 7 7 6 5 4 3 3 4 4 3 3 3 4 4 4 5 5 5
10 11 9 7 6 4 6 5 0 2 0 1 3 5 8 9 9 10 10 11 11 11 11 10 10 9 9 9 8 7 7 6 5 5 4 4 3 3 2 3 3 3 4 4 4 4 5 4 5
10 11 9 8 7 7 4 2 3 3 4 4 5 6 8 9 9 9 10 11 11 10 10 10 10 9 9 9 8 7 7 6 5 5 5 4 3 3 3 3 3 3 3 3 4 3 4 4 5
7 7 7 9 8 9 6 6 3 2 3 4 6 7 8 9 9 9 10 10 10 10 9 9 9 8 8 8 7 6 7 7 5 5 4 4 3 3 3 3 3 3 3 3 3 3 3 4 3
9 9 9 8 8 8 6 3 3 1 0 2 5 7 8 9 10 9 9 10 10 10 10 10 9 8 8 7 7 6 6 6 5 5 4 4 4 3 3 3 3 2 2 2 2 3 2 3 3
10 11 11 10 8 8 9 2 5 1 0 0 2 5 7 7 8 9 10 10 10 11 10 10 9 9 8 7 7 7 6 6 6 5 5 4 4 4 3 3 2 2 2 2 2 3 2 3 3
Wind_Direction
195 198 223 237 182 72 65 65 69 78 73 69 66 58 59 45 41 84 108 122 125 126 124 129 120 117 113 109 108 110 110 111 114 117 118 116 114 113 112 112 110 109 109 111 113 116 116 114 115
191 207 235 247 61 74 69 65 67 67 85 95 81 79 76 67 67 103 124 128 135 128 127 121 120 120 117 115 112 112 110 109 110 112 116 116 114 112 111 111 113 113 114 113 114 117 115 116 116
202 238 271 62 59 63 71 71 79 87 94 94 87 65 61 78 99 115 126 138 136 123 121 116 126 123 120 117 113 112 112 111 110 110 113 116 116 115 113 112 112 115 116 116 116 116 116 114 113
227 220 196 68 69 65 71 79 90 99 92 88 99 90 78 73 100 120 132 142 131 130 131 120 129 126 122 118 116 114 114 113 112 112 114 115 116 116 114 112 111 113 115 119 118 118 118 115 113
245 262 85 76 72 72 72 74 77 84 88 96 99 101 92 81 110 125 137 140 135 131 125 123 128 127 125 122 120 120 117 115 115 116 116 116 117 116 114 112 111 113 114 117 118 117 119 118 116
244 73 72 76 78 79 81 83 86 87 98 104 107 105 94 118 129 136 139 142 133 131 127 123 129 129 128 126 126 124 120 118 119 119 116 115 116 116 116 113 111 111 113 116 120 120 118 117 117
342 61 73 75 83 83 73 76 81 99 106 103 111 109 118 134 135 140 137 136 135 134 131 135 143 142 139 131 127 124 122 122 120 119 114 113 116 118 117 115 115 116 118 120 119 117 116 117 121
317 93 83 76 75 82 92 90 81 87 93 108 119 121 137 142 144 143 141 141 136 137 134 137 141 136 149 142 135 128 124 123 123 123 126 126 126 126 129 132 118 119 121 122 120 117 115 118 124
267 86 74 68 68 90 108 108 95 96 119 118 90 95 124 139 148 150 149 148 147 150 149 147 141 146 150 137 135 146 143 137 145 136 136 157 148 134 142 106 117 124 124 123 123 121 121 132 133
284 68 68 60 68 96 114 112 126 142 133 127 117 111 129 147 157 161 160 160 160 160 159 150 153 155 149 132 135 148 153 142 151 129 140 141 121 117 110 115 124 125 128 132 129 137 163 188 149
4 53 68 80 83 105 129 131 144 149 128 140 147 146 152 159 166 167 163 163 159 159 159 162 159 158 145 140 143 138 137 135 139 129 131 128 138 137 132 140 143 144 156 150 148 175 168 142 117
57 60 57 76 93 125 131 137 142 113 79 113 144 153 160 168 170 169 164 162 158 162 165 164 156 161 158 147 143 157 160 158 147 142 161 149 142 139 127 140 141 153 147 136 154 141 131 137 151
79 66 70 97 127 128 146 146 124 117 103 127 141 156 167 171 172 170 165 165 169 172 170 169 168 161 162 170 197 170 173 180 152 149 155 168 159 146 142 137 154 159 139 157 165 148 140 160 166
46 108 124 124 124 145 163 147 155 124 133 143 155 165 171 175 175 171 173 178 178 179 175 173 178 172 176 185 194 191 184 188 183 168 159 179 160 151 163 161 170 161 166 146 158 151 160 176 156
207 181 152 141 156 161 195 175 167 140 152 159 166 170 173 180 182 184 183 184 182 180 179 179 183 181 186 193 196 194 199 189 189 165 168 185 177 162 182 165 184 172 167 166 191 172 178 181 177
212 213 177 139 187 182 240 175 143 158 170 171 171 174 180 186 192 189 187 189 186 184 183 188 192 183 188 196 202 200 201 192 196 190 179 187 181 186 202 186 183 178 199 195 183 210 201 194 192
210 220 175 145 184 209 243 260 137 172 185 181 180 182 186 188 198 194 195 192 192 190 188 190 196 191 193 193 207 212 195 205 212 203 199 190 200 197 212 207 167 202 208 212 220 182 219 200 203
203 221 202 189 162 236 241 248 162 184 199 193 187 188 188 194 196 193 194 194 191 190 190 190 194 190 189 191 199 210 202 197 214 215 207 205 205 203 217 209 203 221 212 218 226 217 229 232 223
267 254 235 142 2 256 252 259 210 186 206 201 195 193 194 196 188 186 190 194 191 190 191 192 193 184 188 192 202 202 200 197 204 212 202 209 214 205 222 239 203 228 219 228 224 224 220 225 222
233 241 222 165 141 268 274 267 227 198 212 212 205 200 200 193 184 183 191 192 194 191 193 191 190 189 195 191 200 209 211 211 205 221 207 217 213 218 217 226 231 222 223 224 229 225 246 243 219
224 251 257 229 202 222 267 234 190 184 203 210 215 210 205 199 190 185 190 192 193 191 193 192 189 189 196 192 195 194 196 216 211 212 207 216 216 220 237 228 240 235 234 223 227 231 232 241 236
216 226 254 237 246 227 280 282 155 172 195 202 207 204 202 198 194 188 187 190 192 191 188 186 186 189 191 191 202 206 212 219 216 220 213 214 221 226 226 232 235 241 248 237 236 228 238 242 243
205 124 228 244 254 262 236 277 149 170 201 193 194 198 196 193 192 188 187 187 186 185 183 182 184 188 190 196 203 213 222 224 218 214 209 225 220 226 226 226 232 234 245 245 257 255 247 241 245
156 180 192 228 243 244 254 277 268 145 149 161 168 180 184 183 183 181 180 179 180 180 180 179 180 187 189 196 205 214 220 219 220 221 219 222 216 220 222 227 233 238 246 240 241 244 239 246 248
209 222 221 220 222 231 148 259 287 36 25 279 171 167 168 171 173 173 177 177 179 180 181 180 181 187 190 196 203 208 212 212 216 225 217 229 228 217 214 227 229 238 240 243 241 237 246 242 241
216 235 246 257 249 202 177 247 280 82 88 216 183 158 160 165 168 171 174 175 178 181 182 183 185 187 188 194 198 203 207 215 215 216 232 225 237 239 227 220 228 236 236 237 238 243 241 242 245
211 230 251 257 266 270 233 237 219 171 179 166 163 160 162 165 165 168 171 174 177 181 182 183 183 186 186 190 191 194 200 214 221 215 223 224 226 230 216 221 225 233 235 236 234 244 249 253 254
263 229 223 242 247 252 236 232 228 158 168 170 175 174 166 165 167 168 170 172 172 174 174 177 180 183 185 186 191 188 194 202 211 220 217 224 228 232 220 216 217 225 229 226 230 236 244 252 259
191 211 229 237 253 262 255 219 96 143 174 198 188 181 173 173 171 169 169 168 168 168 168 171 175 180 182 184 185 188 188 193 200 204 208 211 216 212 209 210 218 222 231 235 233 245 245 253 262
229 222 216 228 228 248 270 241 103 102 18 238 190 171 172 172 168 167 165 166 170 170 170 171 175 178 179 178 178 181 183 189 192 193 197 198 199 202 196 204 212 220 220 232 246 257 257 262 267